Phoenix, AZ

10:56 PM MST on December 07, 2016 (GMT -0700)
Phoenix Sky Harbor International

Weather History for KPHX - May, 2014

Change the Weather History Date:

Friday, May 2, 2014

  Actual Average Record
Temperature  
Mean Temperature 81 °F 78 °F  
Max Temperature 95 °F 90 °F 107 °F (1947)
Min Temperature 67 °F 65 °F 40 °F (1967)
Degree Days  
Heating Degree Days 0 0  
Month to date heating degree days 0 0  
Since 1 July heating degree days 546 934  
Cooling Degree Days 16 13  
Month to date cooling degree days 32 13  
Year to date cooling degree days 537 368  
Growing Degree Days 32 (Base 50)    
Moisture  
Dew Point 17 °F    
Average Humidity 11    
Maximum Humidity 17    
Minimum Humidity 5    
Precipitation  
Precipitation 0.00 in 0.00 in 0.47 in (1941)
Month to date precipitation 0.00 0.00  
Year to date precipitation 0.99 3.10  
Snow  
Snow 0.00 in - - ()
Month to date snowfall 0.0  
Year to date snowfall 0.0  
Since 1 July snowfall 0.0  
Snow Depth 0.00 in    
Sea Level Pressure  
Sea Level Pressure 29.89 in    
Wind  
Wind Speed 5 mph (ESE)    
Max Wind Speed 13 mph    
Max Gust Speed 17 mph    
Visibility 10 miles    
Events      
T = Trace of Precipitation, MM = Missing Value Source: NWS Daily Summary

Daily Weather History Graph

Daily Weather History Graph

Search for Another Location

Airport or City:

Trip Planner

Search our weather history database for the weather conditions in past years. The results will help you decide how hot, cold, wet, or windy it might be!

Date:

Astronomy

May. 02, 2014 Rise Set
Actual Time 5:38 AM MST 7:11 PM MST
Civil Twilight 5:12 AM MST 7:38 PM MST
Nautical Twilight 4:40 AM MST 8:10 PM MST
Astronomical Twilight 4:07 AM MST 8:43 PM MST
Moon 8:22 AM MST (5/2) 10:34 PM MST (5/2)
Length of Visible Light 14h 26m
Length of Day
13h 32m
Waxing Crescent, 13% of the Moon is Illuminated
May 2
Waxing Crescent
May 6
First Quarter
May 14
Full
May 21
Last Quarter
May 28
New

Hourly Weather History & Observations

Time (MST) Temp. Dew Point Humidity Pressure Visibility Wind Dir Wind Speed Gust Speed Precip Events Conditions
12:51 AM 75.0 °F 18.0 °F 12% 29.91 in 10.0 mi Calm Calm - N/A   Clear
1:51 AM 71.1 °F 19.9 °F 14% 29.91 in 10.0 mi Calm Calm - N/A   Clear
2:51 AM 70.0 °F 23.0 °F 17% 29.91 in 10.0 mi ESE 5.8 mph - N/A   Clear
3:51 AM 70.0 °F 15.1 °F 12% 29.92 in 10.0 mi ENE 3.5 mph - N/A   Clear
4:51 AM 72.0 °F 10.0 °F 9% 29.92 in 10.0 mi ENE 10.4 mph - N/A   Clear
5:51 AM 69.1 °F 12.0 °F 11% 29.94 in 10.0 mi East 6.9 mph - N/A   Clear
6:51 AM 72.0 °F 14.0 °F 11% 29.96 in 10.0 mi East 3.5 mph - N/A   Clear
7:51 AM 75.0 °F 14.0 °F 10% 29.97 in 10.0 mi East 8.1 mph - N/A   Clear
8:51 AM 79.0 °F 17.1 °F 10% 29.98 in 10.0 mi East 4.6 mph - N/A   Clear
9:51 AM 82.9 °F 17.1 °F 9% 29.98 in 10.0 mi ESE 3.5 mph - N/A   Partly Cloudy
10:51 AM 87.1 °F 16.0 °F 7% 29.97 in 10.0 mi ESE 6.9 mph - N/A   Partly Cloudy
11:51 AM 91.0 °F 14.0 °F 6% 29.95 in 10.0 mi East 4.6 mph - N/A   Partly Cloudy
12:51 PM 90.0 °F 15.1 °F 6% 29.91 in 10.0 mi SSW 6.9 mph - N/A   Scattered Clouds
1:51 PM 91.0 °F 14.0 °F 6% 29.90 in 10.0 mi Calm Calm - N/A   Scattered Clouds
2:51 PM 91.9 °F 12.9 °F 5% 29.87 in 10.0 mi Calm Calm - N/A   Partly Cloudy
3:51 PM 93.0 °F 14.0 °F 5% 29.84 in 10.0 mi Variable 5.8 mph - N/A   Partly Cloudy
4:51 PM 93.0 °F 14.0 °F 5% 29.82 in 10.0 mi North 4.6 mph 17.3 mph N/A   Partly Cloudy
5:51 PM 93.0 °F 14.0 °F 5% 29.81 in 10.0 mi SW 5.8 mph - N/A   Partly Cloudy
6:51 PM 91.0 °F 16.0 °F 6% 29.80 in 10.0 mi WSW 9.2 mph - N/A   Partly Cloudy
7:51 PM 90.0 °F 14.0 °F 6% 29.81 in 10.0 mi West 5.8 mph - N/A   Partly Cloudy
8:51 PM 84.9 °F 21.0 °F 10% 29.82 in 10.0 mi SSW 3.5 mph - N/A   Partly Cloudy
9:51 PM 84.0 °F 19.9 °F 9% 29.83 in 10.0 mi Calm Calm - N/A   Clear
10:51 PM 81.0 °F 27.0 °F 14% 29.83 in 10.0 mi East 5.8 mph - N/A   Clear
11:51 PM 78.1 °F 25.0 °F 14% 29.83 in 10.0 mi East 10.4 mph - N/A   Clear